Regional Weather Roundup
Issued by NWS

Home | Current Version | Previous Version | Graphics & Text | Print | Product List | Glossary Off
Versions: 1 2 3 4 5 6 7 8 9 10 11 12 13 14 15 16 17 18 19 20 21 22 23 24 25 26 27 28 29 30 31 32 33 34 35 36 37 38 39 40 41 42 43 44 45 46 47 48 49 50

000
ASUS43 KDTX 010310
RWRMI
MICHIGAN HOURLY REGIONAL WEATHER ROUNDUP
NATIONAL WEATHER SERVICE DETROIT/PONTIAC MI
1100 PM EDT FRI OCT 31 2014

NOTE: "FAIR" INDICATES FEW OR NO CLOUDS BELOW 12,000 FEET WITH NO
SIGNIFICANT WEATHER AND/OR OBSTRUCTION TO VISIBILITY.

MIZ047>049-052>055-059>063-066>070-074>076-081>083-010400-
SOUTHEAST LOWER MICHIGAN

CITY           SKY/WX    TMP DP  RH WIND       PRES   REMARKS
ADRIAN         CLOUDY    33  28  81 N25G32    30.11R WCI  20
ALMA           CLOUDY    33  23  66 N22G28    30.26S WCI  21
ANN ARBOR      CLOUDY    34  29  82 N18G31    30.09R WCI  23
BAD AXE        CLOUDY    34  32  93 N21G29    30.19R WCI  22
CARO           CLOUDY    33  32  94 N18G25    30.19R WCI  22
DETROIT CITY   CLOUDY    38  32  79 N20G38    30.07R WCI  28
DETROIT        FLURRIES  36  32  85 N20G30    30.07R WCI  25
FLINT          LGT SNOW  34  31  88 N17G24    30.19R FOG     WCI  23
GROSSE ILE     DRIZZLE   37  34  87 N22G36    30.04R WCI  27
HILLSDALE      CLOUDY    33  27  78 N20G30    30.13R WCI  22
HOWELL         CLOUDY    31  30  96 N12G23    30.15R WCI  22

CITY           SKY/WX    TMP DP  RH WIND       PRES   REMARKS
JACKSON        CLOUDY    32  26  78 N20G29    30.16R WCI  20
LAMBERTVILLE   DRIZZLE   36  32  87 N16G23    30.07R WCI  26
LANSING        CLOUDY    33  23  66 N18G30    30.22R WCI  22
LAPEER         FLURRIES  34  32  93 N14G24    30.14R WCI  24
MASON          CLOUDY    32  26  77 N17G28    30.18R WCI  21
MONROE         RAIN      36  34  93 N20G29    30.04R WCI  25
MT. CLEMENS    LGT RAIN  36  36 100 N21G30    30.05R WCI  24
PONTIAC        LGT SNOW  34  30  85 N21G30    30.09R WCI  22
PORT HOPE        N/A     39  30  70 N28G38    30.18R WCI  28
PORT HURON     DRIZZLE   39  36  87 N18G32    30.07R WCI  30
TRI CITIES     CLOUDY    34  24  67 N24G38    30.24R WCI  21
TROY           CLOUDY    37  32  84 N17G35    30.10R WCI  27
SAGINAW HB     CLOUDY    34  30  86 N21G38    30.21R WCI  22
$$
MIZ043>046-050>051-056>058-064>065-071>073-077>080-010400-
SOUTHWEST LOWER MICHIGAN

CITY           SKY/WX    TMP DP  RH WIND       PRES   REMARKS
BATTLE CREEK   CLOUDY    33  21  61 N22G31    30.22R WCI  21
BENTON HARBOR  CLOUDY    34  21  59 NE12G24   30.28R WCI  25
BIG RAPIDS     MOCLDY    31  22  69 N17G24    30.30R WCI  20
COLDWATER      CLOUDY    34  25  68 N20G37    30.18R WCI  23
FREMONT        CLOUDY    32  24  70 NE10G16   30.31R WCI  24
HOLLAND        CLOUDY    35  23  61 N10G17    30.30R WCI  27
GRAND RAPIDS   CLOUDY    34  21  59 N22       30.27R WCI  22
IONIA          CLOUDY    34  21  60 N21G29    30.24S WCI  22
KALAMAZOO      CLOUDY    34  22  61 N17G25    30.23R WCI  23
LUDINGTON      CLOUDY    34  22  61 N5G23     30.35R WCI  30
MARSHALL       CLOUDY    32  22  67 N10G23    30.19R WCI  24
MOUNT PLEASANT CLOUDY    32  22  66 N10       30.27R WCI  24
MUSKEGON       CLOUDY    36  23  59 N10       30.32R WCI  28
SOUTH HAVEN    CLOUDY    35  24  62 NE17G25   30.28R WCI  25
$$
MIZ016>042-010400-
NORTHERN LOWER MICHIGAN

CITY           SKY/WX    TMP DP  RH WIND       PRES   REMARKS
ALPENA         CLOUDY    31  21  66 N23G29    30.33R WCI  18
BEAVER ISLAND  CLOUDY    33  19  57 N13G18    30.40R WCI  24
BELLAIRE       CLOUDY    32  18  56 N10G20    30.38R WCI  24
CADILLAC       CLOUDY    27  21  76 N10       30.29R WCI  18
CHARLEVOIX     CLOUDY    31  19  59 NE17G24   30.41R WCI  20
FRANKFORT      CLOUDY    35  24  65 NE6       30.37R WCI  30
GAYLORD        CLOUDY    27  19  72 NE13G21   30.32R WCI  16
GRAYLING       CLOUDY    29  18  63 N15G24    30.33R WCI  18
HARBOR SPRINGS CLOUDY    29  18  62 NE6       30.39R WCI  23
HOUGHTON LAKE  CLOUDY    29  19  66 N12G26    30.31R WCI  19
OSCODA         MIX PCPN  32  27  81 N17G30    30.27R WCI  21
PELLSTON       CLOUDY    29  18  63 N17G24    30.39R WCI  17
ROGERS CITY    CLOUDY    30  23  74 VRB13G22  30.36R WCI  20
TRAVERSE CITY  CLOUDY    34  20  56 NE14G25   30.35R WCI  25
$$
MIZ007>008-015-010400-
EASTERN UPPER MICHIGAN

CITY           SKY/WX    TMP DP  RH WIND       PRES   REMARKS
KINROSS        PTCLDY    27  19  74 N5        30.40R WCI  21
MACKINAC ISLAN CLEAR     29  17  59 NE18G25   30.39R WCI  17
NEWBERRY       CLOUDY    30  19  63 N7        30.39S WCI  24
S. S. MARIE    CLEAR     27  15  61 N6        30.40R WCI  20
MUNISING         N/A     38  25  59 NE18      30.42R WCI  28
$$
MIZ004>006-011>014-085-010400-
CENTRAL UPPER MICHIGAN

CITY           SKY/WX    TMP DP  RH WIND       PRES   REMARKS
MANISTIQUE     CLOUDY    32  19  59 N6        30.42R WCI  26
ESCANABA       CLOUDY    34  19  55 N9G20     30.43S WCI  26
MENOMINEE      CLOUDY    32  19  59 N7        30.44S WCI  26
SAWYER-GWINN   CLOUDY    32  23  71 N9        30.41S WCI  24
$$
MIZ001>003-009>011-084-010400-
WESTERN UPPER MICHIGAN

CITY           SKY/WX    TMP DP  RH WIND       PRES   REMARKS
IRON MOUNTAIN  CLOUDY    31  18  58 N10G20    30.44R WCI  22
HOUGHTON       PTCLDY    24  20  84 CALM      30.44F
COPPER HARBOR    N/A     35  25  66 NE10      30.46S WCI  27
IRONWOOD       PTCLDY    19  19 100 CALM      30.45S
$$

ABBREVIATIONS USED IN REMARKS
   TC - TEMPERATURE IN CELSIUS
  WCI - WIND CHILL INDEX
   HX - HEAT INDEX
  VSB - VISIBILITY




USA.gov is the U.S. government's official web portal to all federal, state and local government web resources and services.